Location: *
(50.2903°S, 172.5375°W)
Time: 13:30:33
(UTC+00:00)

COSMOS 2406 - Pass Details

Date: 17 November 2019
Orbit: 843 x 864 km, 71.0° (Epoch: 13 December)

Event Time Altitude Azimuth Distance (km) Brightness Sun altitude
Rises 12:11:14 0° 214° (SW) 3,452 7.0 -19.6°
Reaches altitude 10° 12:13:49 10° 220° (SW) 2,513 6.1 -19.5°
Maximum altitude 12:19:11 41° 288° (WNW) 1,230 3.8 -19.3°
Enters shadow 12:20:51 34° 326° (NNW) 1,402 3.8 -19.2°
